Location: Milton
(43.5183°N, 79.8775°W)
Time: 09:18:19
(UTC+00:00)

Gurwin Techsat 1B - Pass Details

Date: 18 April 2024
Orbit: 811 x 812 km, 98.9° (Epoch: 29 May)

Event Time Altitude Azimuth Distance (km) Brightness Sun altitude
Rises 09:28:49 0° 9° (N) 3,346 12.4 -11.3°
Reaches altitude 10° 09:31:14 10° 4° (N) 2,410 11.5 -10.9°
Maximum altitude 09:36:21 50° 290° (WNW) 1,025 8.9 -10.1°
Drops below altitude 10° 09:41:27 10° 216° (SW) 2,394 10.5 -9.3°
Enters shadow 09:42:09 - 215° (SW) 2,661 10.8 -9.2°
